EW5139 Weather Reports


time (UTC)temp
C
wind
direction
speed
KPH
gust
KPH
rain 1hr
cm
rain 24hr
cm
rain mn
cm
humidity
%
barometer
mb
20260509024406 13 329 3.2 8.0 0.00 0.00 0.00 85 1011.0
20260509023906 13 341 1.6 9.7 0.00 0.00 0.00 85 1010.9
20260509023406 13 331 3.2 4.8 0.00 0.00 0.00 85 1010.8
20260509022905 13 339 3.2 4.8 0.00 0.00 0.00 85 1010.9
20260509022406 13 334 1.6 4.8 0.00 0.00 0.00 85 1010.8
20260509021905 13 341 0.0 1.6 0.00 0.00 0.00 85 1010.5
20260509021405 13 52 0.0 1.6 0.00 0.00 0.00 84 1010.5
20260509020406 13 354 0.0 1.6 0.00 0.00 0.00 84 1010.4
20260509015906 13 347 0.0 0.0 0.00 0.00 0.00 84 1010.5
20260509015406 13 342 0.0 1.6 0.00 0.00 0.00 83 1010.5
20260509014905 13 322 0.0 0.0 0.00 0.00 0.00 83 1010.5
20260509014406 13 322 0.0 0.0 0.00 0.00 0.00 83 1010.5
20260509013905 13 312 0.0 0.0 0.00 0.00 0.00 82 1010.6
20260509013406 13 312 0.0 1.6 0.00 0.00 0.00 82 1010.5
20260509012905 14 349 0.0 1.6 0.00 0.00 0.00 81 1010.4
20260509012405 14 8 0.0 0.0 0.00 0.00 0.00 79 1010.5
20260509011905 14 8 0.0 4.8 0.00 0.00 0.00 78 1010.5
20260509011405 15 320 3.2 9.7 0.00 0.00 0.00 77 1010.6
20260509010905 15 333 4.8 11.3 0.00 0.00 0.00 75 1010.3
20260509010406 15 333 1.6 4.8 0.00 0.00 0.00 75 1010.4
20260509005905 15 341 0.0 1.6 0.00 0.00 0.00 78 1010.4
20260509005406 15 341 0.0 0.0 0.00 0.00 0.00 79 1010.2
20260509004906 15 341 0.0 0.0 0.00 0.00 0.00 79 1010.0
20260509004405 15 341 0.0 0.0 0.00 0.00 0.00 78 1009.9
20260509003905 15 341 0.0 0.0 0.00 0.00 0.00 78 1009.8
20260509003405 15 341 0.0 0.0 0.00 0.00 0.00 77 1009.8
20260509002905 15 341 0.0 0.0 0.00 0.00 0.00 76 1009.8
20260509001905 16 342 0.0 0.0 0.00 0.00 0.00 76 1009.9
20260509001406 16 342 0.0 0.0 0.00 0.00 0.00 76 1009.9
20260509000906 16 342 0.0 0.0 0.00 0.00 0.00 76 1010.0
20260509000405 16 342 0.0 0.0 0.00 0.00 0.00 75 1009.9
20260508235905 16 342 0.0 0.0 0.00 0.00 0.00 76 1009.9
20260508234406 16 342 0.0 0.0 0.00 0.00 0.00 73 1009.8
20260508233905 16 342 0.0 0.0 0.00 0.00 0.00 72 1009.7
20260508233405 17 342 0.0 0.0 0.00 0.00 0.00 69 1009.7
20260508232405 17 342 0.0 0.0 0.00 0.00 0.00 64 1010.0
20260508231905 17 315 0.0 0.0 0.00 0.00 0.00 62 1010.0
20260508231405 17 314 0.0 1.6 0.00 0.00 0.00 62 1010.0
20260508230905 17 155 0.0 1.6 0.00 0.00 0.00 61 1009.9
20260508230405 18 150 0.0 4.8 0.00 0.00 0.00 59 1009.7
20260508225905 18 347 1.6 4.8 0.00 0.00 0.00 58 1009.8
20260508225405 18 267 0.0 1.6 0.00 0.00 0.00 56 1009.7
20260508224905 18 319 0.0 0.0 0.00 0.00 0.00 56 1009.7
20260508224405 18 308 0.0 3.2 0.00 0.00 0.00 54 1009.7
20260508223905 18 161 0.0 1.6 0.00 0.00 0.00 54 1009.7
20260508223405 18 268 0.0 4.8 0.00 0.00 0.00 54 1009.6
20260508222906 18 104 0.0 1.6 0.00 0.00 0.00 53 1009.7
20260508222405 18 291 0.0 1.6 0.00 0.00 0.00 53 1009.7
20260508221905 18 291 0.0 0.0 0.00 0.00 0.00 52 1009.7
20260508221405 18 38 0.0 3.2 0.00 0.00 0.00 52 1009.6
20260508220905 18 45 0.0 1.6 0.00 0.00 0.00 52 1009.7
20260508220405 18 117 0.0 1.6 0.00 0.00 0.00 51 1009.6
20260508215405 18 203 0.0 1.6 0.00 0.00 0.00 51 1009.5
20260508214905 18 207 1.6 4.8 0.00 0.00 0.00 50 1009.5
20260508214405 19 49 1.6 8.0 0.00 0.00 0.00 50 1009.6
20260508213905 19 262 1.6 4.8 0.00 0.00 0.00 50 1009.5
20260508213405 19 175 1.6 4.8 0.00 0.00 0.00 51 1009.7
20260508212405 19 142 0.0 4.8 0.00 0.00 0.00 51 1009.8
20260508211905 19 269 0.0 1.6 0.00 0.00 0.00 51 1009.8
20260508211404 19 111 0.0 1.6 0.00 0.00 0.00 51 1009.9
20260508210905 19 134 1.6 3.2 0.00 0.00 0.00 51 1009.8
20260508210405 19 177 0.0 3.2 0.00 0.00 0.00 49 1010.0
20260508205905 19 89 0.0 3.2 0.00 0.00 0.00 50 1010.0
20260508205405 18 317 0.0 4.8 0.00 0.00 0.00 48 1010.2
20260508204905 18 267 1.6 4.8 0.00 0.00 0.00 48 1010.3
20260508203904 19 3 1.6 8.0 0.00 0.00 0.00 49 1010.5
20260508203405 19 276 3.2 11.3 0.00 0.00 0.00 48 1010.6
20260508202904 19 140 0.0 9.7 0.00 0.00 0.00 50 1010.6
20260508202405 19 226 0.0 4.8 0.00 0.00 0.00 49 1010.6
20260508201905 19 239 3.2 8.0 0.00 0.00 0.00 48 1010.6
20260508200905 19 247 1.6 9.7 0.00 0.00 0.00 48 1010.7
20260508195905 19 286 1.6 11.3 0.00 0.00 0.00 48 1010.6
20260508195405 19 158 0.0 4.8 0.00 0.00 0.00 48 1010.7
20260508194905 19 290 0.0 4.8 0.00 0.00 0.00 48 1010.8
20260508194405 19 146 0.0 3.2 0.00 0.00 0.00 48 1010.8
20260508193905 19 185 1.6 9.7 0.00 0.00 0.00 47 1010.8
20260508192904 20 227 0.0 4.8 0.00 0.00 0.00 46 1010.8
20260508192405 20 309 3.2 22.5 0.00 0.00 0.00 45 1011.0
20260508191905 20 268 3.2 8.0 0.00 0.00 0.00 45 1010.9
20260508191405 20 125 1.6 12.9 0.00 0.00 0.00 44 1011.0
20260508190905 20 256 3.2 8.0 0.00 0.00 0.00 47 1011.0
20260508185905 20 282 3.2 11.3 0.00 0.00 0.00 48 1011.3
20260508185405 20 236 3.2 9.7 0.00 0.00 0.00 45 1011.3
20260508184904 20 304 4.8 16.1 0.00 0.00 0.00 46 1011.6
20260508184405 20 28 3.2 4.8 0.00 0.00 0.00 47 1011.5
20260508183904 20 151 0.0 4.8 0.00 0.00 0.00 49 1011.6
20260508183404 20 228 1.6 14.5 0.00 0.00 0.00 47 1011.8
20260508182904 20 239 1.6 8.0 0.00 0.00 0.00 46 1011.9
20260508182404 20 204 1.6 4.8 0.00 0.00 0.00 47 1012.0
20260508181904 20 280 1.6 8.0 0.00 0.00 0.00 48 1012.1
20260508180904 20 293 3.2 14.5 0.00 0.00 0.00 48 1012.3
20260508175904 20 262 1.6 9.7 0.00 0.00 0.00 47 1012.5
20260508175404 20 251 1.6 12.9 0.00 0.00 0.00 51 1012.6
20260508174404 19 280 1.6 9.7 0.00 0.00 0.00 50 1012.6
20260508173904 19 196 1.6 9.7 0.00 0.00 0.00 49 1012.7
20260508172904 18 219 1.6 4.8 0.00 0.00 0.00 51 1013.0
20260508172404 19 220 1.6 4.8 0.00 0.00 0.00 50 1013.1
20260508171904 19 31 1.6 8.0 0.00 0.00 0.00 51 1013.1
20260508171404 19 132 3.2 9.7 0.00 0.00 0.00 52 1013.1
20260508170904 19 342 1.6 12.9 0.00 0.00 0.00 50 1013.2
20260508170404 20 269 1.6 4.8 0.00 0.00 0.00 49 1013.2
20260508165905 20 272 3.2 11.3 0.00 0.00 0.00 49 1013.3
20260508165404 20 282 3.2 9.7 0.00 0.00 0.00 50 1013.4
20260508164904 20 278 4.8 14.5 0.00 0.00 0.00 50 1013.5
20260508164404 20 182 1.6 8.0 0.00 0.00 0.00 49 1013.6
20260508163904 20 302 3.2 14.5 0.00 0.00 0.00 53 1013.8
20260508163404 20 141 3.2 8.0 0.00 0.00 0.00 50 1013.8
20260508162404 19 257 1.6 4.8 0.00 0.00 0.00 53 1013.9
20260508160905 19 80 1.6 8.0 0.00 0.00 0.00 53 1014.0
20260508160404 18 262 1.6 4.8 0.00 0.00 0.00 54 1014.1
20260508155404 18 275 3.2 14.5 0.00 0.00 0.00 53 1014.3
20260508154904 18 241 3.2 11.3 0.00 0.00 0.00 53 1014.4
20260508154404 18 275 1.6 4.8 0.00 0.00 0.00 56 1014.4
20260508153404 17 150 1.6 4.8 0.00 0.00 0.00 58 1014.6
20260508152904 17 93 3.2 12.9 0.00 0.00 0.00 56 1014.7
20260508152403 17 286 3.2 12.9 0.00 0.00 0.00 55 1014.7
20260508151904 17 256 4.8 12.9 0.00 0.00 0.00 56 1014.8
20260508150904 17 188 3.2 9.7 0.00 0.00 0.00 56 1014.9
20260508150403 17 294 3.2 9.7 0.00 0.00 0.00 55 1014.9
20260508145904 16 267 3.2 8.0 0.00 0.00 0.00 56 1015.0
20260508144904 16 176 1.6 8.0 0.00 0.00 0.00 59 1015.0
20260508144403 16 293 3.2 12.9 0.00 0.00 0.00 56 1014.9
20260508143904 16 328 3.2 4.8 0.00 0.00 0.00 56 1015.0
20260508143404 16 249 1.6 9.7 0.00 0.00 0.00 56 1015.1
20260508142904 16 287 1.6 4.8 0.00 0.00 0.00 56 1015.1
20260508142404 15 255 3.2 14.5 0.00 0.00 0.00 55 1015.3
20260508141904 15 302 1.6 12.9 0.00 0.00 0.00 57 1015.2
20260508141404 15 308 3.2 8.0 0.00 0.00 0.00 55 1015.4
20260508140403 15 282 3.2 9.7 0.00 0.00 0.00 56 1015.5
20260508135903 15 308 1.6 4.8 0.00 0.00 0.00 56 1015.4
20260508135403 15 237 1.6 11.3 0.00 0.00 0.00 57 1015.4
20260508134908 15 279 0.0 3.2 0.00 0.00 0.00 57 1015.5
20260508134407 15 109 0.0 1.6 0.00 0.00 0.00 59 1015.5
20260508133908 14 117 1.6 4.8 0.00 0.00 0.00 59 1015.4
20260508133407 13 227 1.6 9.7 0.00 0.00 0.00 61 1015.5
20260508132908 13 153 0.0 3.2 0.00 0.00 0.00 62 1015.5
20260508131408 12 136 0.0 4.8 0.00 0.00 0.00 69 1015.5
20260508130907 12 285 0.0 1.6 0.00 0.00 0.00 66 1015.5
20260508130408 12 153 0.0 1.6 0.00 0.00 0.00 66 1015.5
20260508125907 12 102 0.0 1.6 0.00 0.00 0.00 67 1015.4
20260508125407 12 321 0.0 3.2 0.00 0.00 0.00 65 1015.4
20260508124907 12 282 0.0 4.8 0.00 0.00 0.00 67 1015.4
20260508124407 12 287 0.0 3.2 0.00 0.00 0.00 66 1015.4
20260508123907 12 52 0.0 1.6 0.00 0.00 0.00 66 1015.3
20260508123408 11 106 0.0 4.8 0.00 0.00 0.00 69 1015.3
20260508122907 11 327 0.0 1.6 0.00 0.00 0.00 68 1015.3
20260508122407 11 150 0.0 0.0 0.00 0.00 0.00 71 1015.3
20260508121907 10 251 0.0 3.2 0.00 0.00 0.00 71 1015.3
20260508121408 10 337 0.0 1.6 0.00 0.00 0.00 73 1015.3
20260508120907 9 281 0.0 1.6 0.00 0.00 0.00 76 1015.4
20260508120408 9 131 0.0 0.0 0.00 0.00 0.00 78 1015.4
20260508115907 8 131 0.0 0.0 0.00 0.00 0.00 79 1015.3
20260508115407 8 131 0.0 0.0 0.00 0.00 0.00 80 1015.3
20260508114907 8 131 0.0 0.0 0.00 0.00 0.00 80 1015.3
20260508114407 8 131 0.0 0.0 0.00 0.00 0.00 81 1015.2
20260508113907 8 131 0.0 0.0 0.00 0.00 0.00 80 1015.2
20260508112408 7 131 0.0 0.0 0.00 0.00 0.00 79 1015.0
20260508111907 7 131 0.0 0.0 0.00 0.00 0.00 79 1015.0
20260508110407 7 80 0.0 1.6 0.00 0.00 0.00 80 1014.8
20260508105907 7 80 0.0 0.0 0.00 0.00 0.00 80 1014.8
20260508104407 7 37 0.0 1.6 0.00 0.00 0.00 80 1014.8
20260508103907 7 37 0.0 0.0 0.00 0.00 0.00 80 1014.8
20260508103407 7 37 0.0 0.0 0.00 0.00 0.00 79 1014.8
20260508102907 7 37 0.0 0.0 0.00 0.00 0.00 79 1014.9
20260508101907 7 37 0.0 0.0 0.00 0.00 0.00 78 1014.9
20260508101407 7 37 0.0 0.0 0.00 0.00 0.00 78 1014.8
20260508100907 7 37 0.0 0.0 0.00 0.00 0.00 79 1014.8
20260508100407 7 37 0.0 0.0 0.00 0.00 0.00 79 1014.8
20260508095907 7 37 0.0 0.0 0.00 0.00 0.00 79 1014.8
20260508095407 7 37 0.0 0.0 0.00 0.00 0.00 79 1014.8
20260508094907 7 37 0.0 0.0 0.00 0.00 0.00 79 1014.8
20260508093906 6 37 0.0 0.0 0.00 0.00 0.00 80 1014.8
20260508093406 6 37 0.0 0.0 0.00 0.00 0.00 80 1014.9
20260508092906 6 37 0.0 0.0 0.00 0.00 0.00 79 1014.9
20260508092407 6 37 0.0 0.0 0.00 0.00 0.00 80 1015.0
20260508091907 6 37 0.0 0.0 0.00 0.00 0.00 81 1014.9
20260508091407 6 37 0.0 0.0 0.00 0.00 0.00 81 1014.9
20260508090907 6 37 0.0 0.0 0.00 0.00 0.00 81 1015.0
20260508090407 6 37 0.0 0.0 0.00 0.00 0.00 80 1015.0
20260508085907 6 37 0.0 0.0 0.00 0.00 0.00 80 1015.0
20260508085407 6 37 0.0 0.0 0.00 0.00 0.00 80 1015.0
20260508084406 6 37 0.0 0.0 0.00 0.00 0.00 81 1014.8
20260508083906 5 37 0.0 0.0 0.00 0.00 0.00 81 1014.8
20260508083407 5 37 0.0 0.0 0.00 0.00 0.00 81 1014.8
20260508082906 5 37 0.0 0.0 0.00 0.00 0.00 81 1014.7
20260508082406 5 37 0.0 0.0 0.00 0.00 0.00 80 1014.8
20260508081907 5 37 0.0 0.0 0.00 0.00 0.00 81 1014.8
20260508081407 5 37 0.0 0.0 0.00 0.00 0.00 81 1014.8
20260508080907 5 37 0.0 0.0 0.00 0.00 0.00 81 1014.8
20260508080406 5 37 0.0 0.0 0.00 0.00 0.00 80 1014.7
20260508075907 5 37 0.0 0.0 0.00 0.00 0.00 80 1014.7
20260508075406 5 37 0.0 0.0 0.00 0.00 0.00 81 1014.7
20260508074907 5 37 0.0 0.0 0.00 0.00 0.00 80 1014.7
20260508073907 6 37 0.0 0.0 0.00 0.00 0.00 79 1014.7
20260508073407 6 37 0.0 0.0 0.00 0.00 0.00 79 1014.7
20260508072906 6 37 0.0 0.0 0.00 0.00 0.00 79 1014.6
20260508072407 6 37 0.0 0.0 0.00 0.00 0.00 79 1014.7
20260508071906 6 37 0.0 0.0 0.00 0.00 0.00 79 1014.8
20260508071407 6 37 0.0 0.0 0.00 0.00 0.00 79 1014.7
20260508070906 6 37 0.0 0.0 0.00 0.00 0.00 79 1014.8
20260508070407 6 37 0.0 0.0 0.00 0.00 0.00 79 1014.9
20260508065907 6 37 0.0 0.0 0.00 0.00 0.00 80 1014.9
20260508065406 6 37 0.0 0.0 0.00 0.00 0.00 79 1014.9
20260508064907 6 37 0.0 0.0 0.00 0.00 0.00 79 1014.9
20260508063907 6 37 0.0 0.0 0.00 0.00 0.00 78 1015.2
20260508063406 6 37 0.0 0.0 0.00 0.00 0.00 77 1015.3
20260508062906 6 37 0.0 0.0 0.00 0.00 0.00 77 1015.4
20260508062406 6 37 0.0 3.2 0.00 0.00 0.00 77 1015.4
20260508061906 6 108 0.0 1.6 0.00 0.00 0.00 78 1015.4
20260508061406 6 312 0.0 0.0 0.00 0.00 0.00 79 1015.4
20260508060906 6 312 0.0 0.0 0.00 0.00 0.00 79 1015.4
20260508060406 6 312 0.0 0.0 0.00 0.00 0.00 79 1015.4
20260508055907 6 312 0.0 0.0 0.00 0.00 0.00 79 1015.3
20260508055406 6 312 0.0 0.0 0.00 0.00 0.00 78 1015.4
20260508054906 6 312 0.0 0.0 0.00 0.00 0.00 78 1015.3
20260508054406 6 312 0.0 0.0 0.00 0.00 0.00 78 1015.5
20260508053906 7 312 0.0 0.0 0.00 0.00 0.00 78 1015.5
20260508053406 7 312 0.0 0.0 0.00 0.00 0.00 79 1015.5
20260508052406 6 312 0.0 0.0 0.00 0.00 0.00 79 1015.4
20260508051906 6 312 0.0 0.0 0.00 0.00 0.00 79 1015.4
20260508051406 6 312 0.0 0.0 0.00 0.00 0.00 80 1015.4
20260508050406 6 312 0.0 0.0 0.00 0.00 0.00 78 1015.3
20260508045406 6 312 0.0 0.0 0.00 0.00 0.00 77 1015.3
20260508044906 6 312 0.0 0.0 0.00 0.00 0.00 77 1015.4
20260508044406 6 312 0.0 0.0 0.00 0.00 0.00 77 1015.3
20260508043906 7 312 0.0 0.0 0.00 0.00 0.00 76 1015.4
20260508042406 7 312 0.0 0.0 0.00 0.00 0.00 75 1015.2
20260508041906 7 312 0.0 0.0 0.00 0.00 0.00 75 1015.3
20260508041406 7 312 0.0 0.0 0.00 0.00 0.00 75 1015.3
20260508040906 7 312 0.0 0.0 0.00 0.00 0.00 75 1015.3
20260508040405 7 312 0.0 0.0 0.00 0.00 0.00 75 1015.2
20260508035906 7 312 0.0 0.0 0.00 0.00 0.00 74 1015.2
20260508035406 7 312 0.0 0.0 0.00 0.00 0.00 74 1015.1
20260508034906 7 312 0.0 0.0 0.00 0.00 0.00 74 1015.1
20260508034406 7 312 0.0 0.0 0.00 0.00 0.00 74 1015.2
20260508033906 7 312 0.0 0.0 0.00 0.00 0.00 74 1015.2
20260508033407 7 312 0.0 0.0 0.00 0.00 0.00 73 1015.1
20260508032406 8 312 0.0 0.0 0.00 0.00 0.00 72 1015.2
20260508031906 8 312 0.0 0.0 0.00 0.00 0.00 72 1015.2
20260508031406 8 312 0.0 0.0 0.00 0.00 0.00 73 1015.2
20260508030906 7 312 0.0 0.0 0.00 0.00 0.00 73 1015.1
20260508025905 8 312 0.0 0.0 0.00 0.00 0.00 72 1015.0
20260508024905 8 312 0.0 0.0 0.00 0.00 0.00 69 1015.1